Weather History for Bonaire, Bonaire

Change the Weather History Date:

Wednesday, November 20, 2013

  Actual Average Record
Temperature  
Mean Temperature 81 °F -  
Max Temperature 87 °F 85 °F 91 °F (2001)
Min Temperature 75 °F 78 °F 75 °F (2013)
Cooling Degree Days 16    
Growing Degree Days 31 (Base 50)    
Moisture  
Dew Point 76 °F    
Average Humidity 83    
Maximum Humidity 100    
Minimum Humidity 66    
Precipitation  
Precipitation 0.00 in - - ()
Sea Level Pressure  
Sea Level Pressure 29.86 in    
Wind  
Wind Speed 7 mph ()    
Max Wind Speed 15 mph    
Max Gust Speed -    
Visibility 6.2 miles    
Events      
Averages and records for this station are not official NWS values.
T = Trace of Precipitation, MM = Missing Value Source: Averaged Metar Reports

Daily Weather History Graph

Daily Weather History Graph

Search for Another Location

Airport:

Trip Planner

Search our weather history database for the weather conditions in past years. The results will help you decide how hot, cold, wet, or windy it might be!

Date:

Astronomy

Nov. 20, 2013 Rise Set
Actual Time 6:32 AM AST 6:04 PM AST
Civil Twilight 6:10 AM AST 6:27 PM AST
Nautical Twilight 5:44 AM AST 6:53 PM AST
Astronomical Twilight 5:18 AM AST 7:18 PM AST
Moon 8:44 PM AST (11/20) 8:54 AM AST (11/20)
Length of Visible Light 12h 16m
Length of Day
11h 31m
Waning Gibbous, 91% of the Moon is Illuminated
Nov 20
Waning Gibbous
Nov 25
Last Quarter
Dec 2
New
Dec 9
First Quarter
Dec 17
Full

Hourly Weather History & Observations

Time (AST) Temp. Heat Index Dew Point Humidity Pressure Visibility Wind Dir Wind Speed Gust Speed Precip Events Conditions
12:00 AM 77.0 °F - 75.2 °F 94% 29.83 in - East 4.6 mph - N/A   Unknown
1:00 AM 77.0 °F - 75.2 °F 94% 29.83 in - East 3.5 mph - N/A   Unknown
2:00 AM 77.0 °F - 73.4 °F 89% 29.83 in - Variable 2.3 mph - N/A   Unknown
3:00 AM 75.2 °F - 73.4 °F 94% 29.80 in - ENE 2.3 mph - N/A   Unknown
4:00 AM 75.2 °F - 73.4 °F 94% 29.83 in - ENE 3.5 mph - N/A   Unknown
5:00 AM 75.2 °F - 75.2 °F 100% 29.83 in - ENE 4.6 mph - N/A   Unknown
6:00 AM 75.2 °F - 75.2 °F 100% 29.86 in - ENE 4.6 mph - N/A   Unknown
7:00 AM 75.2 °F - 73.4 °F 94% 29.86 in - East 3.5 mph - N/A   Unknown
7:55 AM 82.4 °F 89.5 °F 75.2 °F 79% 29.89 in 6.2 mi East 5.8 mph - N/A   Partly Cloudy
8:55 AM 84.2 °F 92.3 °F 75.2 °F 74% 29.92 in - East 8.1 mph - N/A   Unknown
9:55 AM 84.2 °F 94.1 °F 77.0 °F 79% 29.92 in - East 9.2 mph - N/A   Unknown
10:55 AM 86.0 °F 95.1 °F 75.2 °F 70% 29.92 in - ESE 10.4 mph - N/A   Unknown
11:55 AM 86.0 °F 95.1 °F 75.2 °F 70% 29.89 in - ESE 12.7 mph - N/A   Unknown
12:55 PM 87.8 °F 97.6 °F 75.2 °F 66% 29.89 in 6.2 mi East 11.5 mph - N/A   Scattered Clouds
1:55 PM 86.0 °F 96.9 °F 77.0 °F 74% 29.86 in - East 13.8 mph - N/A   Unknown
2:55 PM 86.0 °F 96.9 °F 77.0 °F 74% 29.83 in 6.2 mi East 11.5 mph - N/A   Scattered Clouds
3:55 PM 86.0 °F 96.9 °F 77.0 °F 74% 29.83 in 6.2 mi East 12.7 mph - N/A   Scattered Clouds
4:25 PM 86.0 °F 96.9 °F 77.0 °F 74% 29.83 in 6.2 mi East 12.7 mph - N/A   Scattered Clouds
5:55 PM 82.4 °F 90.9 °F 77.0 °F 84% 29.83 in 6.2 mi East 15.0 mph - N/A   Partly Cloudy
6:25 PM 82.4 °F 90.9 °F 77.0 °F 84% 29.83 in 6.2 mi ENE 10.4 mph - N/A   Partly Cloudy
7:55 PM 82.4 °F 90.9 °F 77.0 °F 84% 29.86 in 6.2 mi East 12.7 mph - N/A   Partly Cloudy
8:55 PM 82.4 °F 90.9 °F 77.0 °F 84% 29.89 in - East 12.7 mph - N/A   Unknown
9:55 PM 82.4 °F 90.9 °F 77.0 °F 84% 29.89 in - ENE 12.7 mph - N/A   Unknown
10:55 PM 82.4 °F 92.4 °F 78.8 °F 89% 29.89 in - ENE 11.5 mph - N/A   Unknown
11:55 PM 82.4 °F 90.9 °F 77.0 °F 84% 29.89 in - East 12.7 mph - N/A   Unknown